Weather History for Brier Island, NS

Change the Weather History Date:

Saturday, February 18, 2012

  Actual Average Record
Temperature  
Mean Temperature 38 °F -  
Max Temperature 41 °F - - ()
Min Temperature 36 °F - - ()
Degree Days  
Heating Degree Days 26    
Moisture  
Dew Point 29 °F    
Average Humidity 69    
Maximum Humidity 91    
Minimum Humidity 50    
Precipitation  
Precipitation 0.00 in - - ()
Sea Level Pressure  
Sea Level Pressure 29.75 in    
Wind  
Wind Speed 20 mph ()    
Max Wind Speed 30 mph    
Max Gust Speed 38 mph    
T = Trace of Precipitation, MM = Missing Value Source: Averaged Metar Reports

Daily Weather History Graph

Daily Weather History Graph

Search for Another Location

Airport:

Trip Planner

Search our weather history database for the weather conditions in past years. The results will help you decide how hot, cold, wet, or windy it might be!

Date:

Astronomy

Feb. 18, 2012 Rise Set
Actual Time 7:21 AM AST 5:58 PM AST
Civil Twilight 6:51 AM AST 6:27 PM AST
Nautical Twilight 6:17 AM AST 7:01 PM AST
Astronomical Twilight 5:44 AM AST 7:35 PM AST
Moon 5:03 AM AST 2:45 PM AST
Length of Visible Light 11h 35m
Length of Day
10h 36m
Waning Crescent, 11% of the Moon is Illuminated
Feb 18
Waning Crescent
Feb 21
New
Feb 29
First Quarter
Mar 8
Full
Mar 14
Last Quarter

Hourly Weather History & Observations

Time (AST) Temp. Windchill Dew Point Humidity Pressure Visibility Wind Dir Wind Speed Gust Speed Precip Events Conditions
12:00 AM 39.2 °F 31.2 °F 36.9 °F 91% 29.79 in - NNW 13.8 mph - N/A   Unknown
1:00 AM 39.0 °F 30.6 °F 36.0 °F 89% 29.77 in - NNW 15.0 mph - N/A   Unknown
2:00 AM 39 °F - 35 °F 81% 29.76 in - NNW 17.3 mph - -  
2:00 AM 39.0 °F 29.9 °F 35.2 °F 86% 29.76 in - NNW 17.3 mph 23.0 mph N/A   Unknown
3:00 AM 38.8 °F 29.4 °F 31.3 °F 74% 29.75 in - NNW 18.4 mph - N/A   Unknown
4:00 AM 38.1 °F 28.8 °F 31.5 °F 77% 29.74 in - NW 17.3 mph - N/A   Unknown
5:00 AM 37.4 °F 27.2 °F 29.5 °F 73% 29.73 in - NW 19.6 mph - N/A   Unknown
6:00 AM 37.4 °F 25.9 °F 29.1 °F 72% 29.73 in - NW 25.3 mph - N/A   Unknown
7:00 AM 36.9 °F 24.9 °F 30.0 °F 76% 29.74 in - WNW 26.5 mph - N/A   Unknown
8:00 AM 37 °F - 29 °F 63% 29.75 in - WNW 26.5 mph - -  
8:00 AM 37.4 °F 25.6 °F 28.9 °F 71% 29.75 in - WNW 26.5 mph - N/A   Unknown
9:00 AM 37.8 °F 25.9 °F 30.7 °F 76% 29.77 in - WNW 27.6 mph - N/A   Unknown
10:00 AM 38.7 °F 26.9 °F 30.0 °F 71% 29.76 in - WNW 28.8 mph - N/A   Unknown
11:00 AM 39.2 °F 27.4 °F 30.6 °F 71% 29.76 in - WNW 29.9 mph 36.8 mph N/A   Unknown
12:00 PM 39.7 °F 28.8 °F 30.6 °F 70% 29.75 in - WNW 26.5 mph 32.2 mph N/A   Unknown
1:00 PM 38.5 °F 27.3 °F 29.5 °F 70% 29.73 in - WNW 25.3 mph 31.1 mph N/A   Unknown
2:00 PM 40 °F - 29 °F 54% 29.71 in - WNW 21.9 mph - -  
2:00 PM 39.9 °F 30.0 °F 29.1 °F 65% 29.71 in - WNW 21.9 mph - N/A   Unknown
3:00 PM 39.6 °F 29.0 °F 27.9 °F 63% 29.71 in - WNW 24.2 mph 31.1 mph N/A   Unknown
4:00 PM 39.6 °F 29.0 °F 27.1 °F 61% 29.72 in - West 24.2 mph 32.2 mph N/A   Unknown
5:00 PM 39.9 °F 29.2 °F 26.6 °F 59% 29.72 in - West 25.3 mph - N/A   Unknown
6:00 PM 38.8 °F 28.0 °F 26.8 °F 62% 29.73 in - WNW 24.2 mph - N/A   Unknown
7:00 PM 39.0 °F 27.6 °F 25.0 °F 57% 29.74 in - WNW 27.6 mph 38.0 mph N/A   Unknown
8:00 PM 38 °F - 26 °F 50% 29.75 in - WNW 27.6 mph - -  
8:00 PM 38.3 °F 26.6 °F 26.1 °F 61% 29.75 in - WNW 27.6 mph - N/A   Unknown
9:00 PM 37.8 °F 25.4 °F 25.0 °F 60% 29.78 in - WNW 29.9 mph 36.8 mph N/A   Unknown
10:00 PM 37.2 °F 24.7 °F 24.8 °F 61% 29.80 in - WNW 29.9 mph - N/A   Unknown
11:00 PM 37.0 °F 24.7 °F 26.4 °F 65% 29.81 in - WNW 28.8 mph 35.7 mph N/A   Unknown